Flag for Mexico Weather past 2 weeks in Querétaro, Querétaro, Mexico

Now
72 °F

Sunny.


Feels Like: 77 °F
Forecast: N/A
Wind: 8 mph from Northeast

Location: Queretaro - Qro.

Current Time: Oct 25, 2014 at 6:17:46 PM

Latest Report: Oct 25, 2014 at 5:50 PM


Visibility: 12 mi

Pressure: 30.31 "Hg

Humidity: 33%

Dew point: 41 °F

Location of QuerétaroLocation

Historic Weather in Querétaro — Graph

°F

Querétaro temperature yesterday

Maximum temperature yesterday: 72 °F (at 3:45 PM)
Minimum temperature yesterday: 54 °F (at 12:45 AM)
Average temperature yesterday: 61 °F

Past Weeks' High & Low Weather Summary

 TemperatureHumidityPressure
High79 °F (Oct 13, 3:45 PM)100% (Oct 11, 7:45 AM)30.44 "Hg (Oct 11, 7:45 AM)
Low43 °F (Oct 15, 7:45 AM)33% (Oct 15, 5:45 PM)30.11 "Hg (Oct 20, 4:50 PM)
Average62 °F72%30.27 "Hg
* Reported Oct 10 4:45 PM — Oct 25 4:45 PM, Querétaro, Weather by CustomWeather, © 2014

Note: Actual official high and low records may vary slightly from our data, if they occured in-between our weather recording intervals... More about our weather records

Advertising

Querétaro weather history for previous 24 hours

 ConditionsComfort  
Time TempWeatherWind HumidityBarometerVisibility
4:45 PM
Oct 25
73 °FPassing clouds.12 mph33%30.31 "Hg12 mi
3:50 PM72 °FScattered clouds.9 mph36%30.33 "Hg12 mi
2:45 PM72 °FPartly sunny.12 mph38%30.32 "Hg7 mi
1:45 PM70 °FPartly sunny.6 mph38%30.36 "Hg7 mi
12:45 PM68 °FPartly sunny.15 mph49%30.42 "Hg7 mi
11:45 AM64 °FScattered clouds.6 mph56%30.44 "Hg7 mi
10:45 AM64 °FPartly sunny.17 mph52%30.43 "Hg7 mi
9:45 AM59 °FBroken clouds.3 mph72%30.42 "Hg7 mi
8:45 AM57 °FBroken clouds.3 mph77%30.40 "Hg7 mi
7:45 AM52 °FPassing clouds.6 mph94%30.41 "Hg6 mi
6:45 AM52 °FPassing clouds.6 mph94%30.40 "Hg8 mi
5:45 AM54 °FPassing clouds.7 mph88%30.40 "Hg8 mi
4:45 AM52 °FPassing clouds.No wind94%30.40 "Hg8 mi
3:45 AM50 °FPassing clouds.No wind100%30.41 "Hg10 mi
2:45 AM54 °FPassing clouds.6 mph88%30.41 "Hg10 mi
1:45 AM52 °FPassing clouds.N/A94%30.41 "Hg10 mi
12:45 AM52 °FClear.N/A94%30.42 "Hg10 mi
11:45 PM
Oct 24
54 °FClear.6 mph88%30.43 "Hg10 mi
10:45 PM54 °FClear.6 mph88%30.42 "Hg10 mi
9:45 PM55 °FClear.6 mph82%30.41 "Hg10 mi
8:45 PM61 °FPassing clouds.9 mph72%30.32 "Hg7 mi
7:45 PM63 °FBroken clouds.7 mph68%30.32 "Hg7 mi
6:45 PM68 °FBroken clouds.17 mph49%30.33 "Hg7 mi
Weather by CustomWeather, © 2014

See weather overviewHow to use our weather pages